User: anonymous   Login
Location: Barnston
(51.8500°N, 0.4000°E)
Time: 22:14:40
(UTC+00:00)
Language:

CZ-2D R/B - Orbit

View from above orbital plane
View from above orbital plane
View from above satellite
View from above satellite

Ground track
Ground track

The orbit data is extracted from the following two-line orbital elements,

1 37932U 11068C   24055.60302650  .00000234  00000-0  12396-3 0  9991
2 37932  98.7860 357.6586 0037052 169.7048   4.2773 14.22437884636524
Epoch (UTC): 24 February 2024 14:28:21
Eccentricity: 0.0037052
inclination: 98.7860°
perigee height: 790 km
apogee height: 844 km
right ascension of ascending node: 357.6586°
argument of perigee: 169.7048°
revolutions per day: 14.22437884
mean anomaly at epoch: 4.2773°
orbit number at epoch: 63652

The dashed part of the orbit path shows where the satellite is in the earth's shadow,  

DLR